[[{"header":{"parameterUnit":"m.s-1","parameterCategory":1,"la1":30.2991,"la2":30.254,"lo1":-89.0895,"lo2":-89.0444,"dy":0.0017,"dx":0.0017,"nx":28,"ny":28,"refTime":"2024-06-01T09:00:00:Z","depth":0,"parameterNumber":2,"parameterNumberName":"U-component_of_WINDS"},"data":[0,0,0,0,0,0,0,0,0,0,0,0,0,0,0,0,0,0,0,0,0,0,0,0,0,0,0,0,0,0,0,0,0,0,0,0,0,0,0,0,0,0,0,0,0,0,0,0,0,0,0,0,0,0,0,0,0,0,-1.1641,-1.1641,0,-1.1696,-1.1696,-1.1697,-1.1707,-1.1707,-1.1706,-1.1706,-1.1769,-1.1771,-1.1773,0,0,0,0,0,0,0,0,0,0,0,0,0,-1.1551,-1.1553,-1.1641,-1.1641,-1.1642,-1.1696,-1.1696,-1.1697,-1.1707,-1.1707,-1.1706,-1.1706,-1.1768,-1.1771,-1.1773,0,0,0,0,0,0,0,0,0,0,0,0,0,-1.1597,-1.1553,-1.1641,-1.1654,-1.1655,-1.1695,-1.1696,-1.1697,-1.1708,-1.1707,-1.1706,-1.1705,-1.1768,-1.1771,-1.1774,-1.1807,0,0,-1.1783,-1.1785,0,0,0,0,0,0,0,0,-1.1594,-1.16,-1.1651,-1.1653,-1.1655,-1.1694,-1.1688,-1.1734,-1.1708,-1.1688,-1.1706,-1.1705,-1.1745,-1.175,-1.1762,-1.181,-1.1813,-1.1784,-1.1786,-1.1787,-1.1788,0,0,0,0,0,0,0,-1.1591,-1.1598,-1.1663,-1.1652,-1.1654,-1.1659,-1.1664,-1.1697,-1.172,-1.169,-1.169,-1.1696,-1.1746,-1.1759,-1.1764,-1.1814,-1.1784,-1.1786,-1.1788,-1.179,-1.1892,-1.1893,0,0,0,0,0,0,-1.1585,-1.1595,-1.1661,-1.1664,-1.1622,-1.1661,-1.1667,-1.1682,-1.172,-1.1724,-1.1697,-1.1697,-1.1754,-1.176,-1.1766,-1.1807,-1.1787,-1.179,-1.1792,-1.1891,-1.1892,-1.1893,0,0,0,0,0,0,-1.1583,-1.159,-1.1659,-1.163,-1.1639,-1.1663,-1.168,-1.1684,-1.1696,-1.1725,-1.173,-1.1705,-1.1754,-1.1761,-1.1796,-1.1809,-1.1791,-1.1794,-1.189,-1.1892,-1.1893,-1.1889,0,0,0,0,0,0,-1.158,-1.1589,-1.1601,-1.163,-1.164,-1.1686,-1.1681,-1.1685,-1.1701,-1.1701,-1.1734,-1.1739,-1.1754,-1.1791,-1.1799,-1.1813,-1.1797,-1.1889,-1.1891,-1.1892,-1.1888,-1.189,-1.1892,0,0,0,0,0,-1.1577,-1.1599,-1.1601,-1.1609,-1.1655,-1.1687,-1.1693,-1.1707,-1.1702,-1.1715,-1.1733,-1.1738,-1.1807,-1.1795,-1.1804,-1.1819,-1.1889,-1.189,-1.1892,-1.1888,-1.189,-1.1892,0,0,0,0,0,0,-1.1574,-1.1603,-1.1606,-1.1638,-1.166,-1.1688,-1.1705,-1.1709,-1.1734,-1.1734,-1.1753,-1.176,-1.1794,-1.181,-1.1797,-1.1853,-1.1848,-1.1851,-1.1841,-1.1843,-1.1845,-1.184,-1.1799,0,0,0,0,0,-1.1576,-1.1598,-1.1624,-1.165,-1.166,-1.168,-1.1695,-1.1704,-1.1728,-1.1738,-1.1759,-1.1784,-1.1811,-1.1828,-1.1855,-1.1891,-1.1899,-1.1906,-1.1908,-1.1909,-1.1912,-1.1933,-1.1936,-1.1899,-1.1899,-1.1899,0,0,-1.1583,-1.1602,-1.1614,-1.1649,-1.1667,-1.169,-1.1688,-1.1713,-1.1731,-1.1742,-1.1775,-1.1792,-1.1821,-1.1857,-1.1874,-1.1871,-1.1924,-1.1912,-1.1913,-1.1915,-1.1935,-1.1939,-1.1942,-1.1901,-1.19,-1.19,0,0,-1.1606,-1.1622,-1.1645,-1.1663,-1.1688,-1.1702,-1.1707,-1.1736,-1.1746,-1.1779,-1.1788,-1.1811,-1.1857,-1.1878,-1.1894,-1.1925,-1.1931,-1.1934,-1.1943,-1.1962,-1.1965,-1.1968,-1.1979,-1.1982,-1.1937,-1.1937,-1.1937,0,-1.1611,-1.1645,-1.1657,-1.1681,-1.1697,-1.1706,-1.173,-1.1747,-1.1782,-1.1793,-1.179,-1.1847,-1.1868,-1.1908,-1.1915,-1.1929,-1.1937,-1.1929,-1.1963,-1.1966,-1.1969,-1.198,-1.1984,-1.1937,-1.1937,-1.1937,-1.1937,0,-1.165,-1.1673,-1.1689,-1.1719,-1.1737,-1.1761,-1.1779,-1.1796,-1.1803,-1.1818,-1.1852,-1.1877,-1.1908,-1.1919,-1.1928,-1.1961,-1.1958,-1.1959,-1.1954,-1.1972,-1.1982,-1.1987,-1.1937,-1.1937,-1.1937,-1.1937,0,0,-1.1672,-1.1708,-1.1714,-1.1727,-1.1756,-1.1776,-1.1801,-1.183,-1.1844,-1.1868,-1.189,-1.1929,-1.1929,-1.1948,-1.196,-1.1977,-1.1999,-1.1976,-1.1977,-1.1979,-1.2037,-1.2036,-1.204,-1.2004,-1.2005,-1.2005,-1.2035,0,-1.1699,-1.1741,-1.1753,-1.179,-1.1812,-1.1821,-1.1843,-1.1865,-1.1879,-1.1902,-1.1919,-1.1946,-1.1945,-1.1956,-1.1973,-1.1993,-1.2011,-1.1991,-1.2026,-1.2027,-1.2017,-1.2046,-1.2044,-1.2071,-1.2039,-1.204,-1.204,0,-1.1735,-1.1756,-1.1794,-1.182,-1.183,-1.1849,-1.1876,-1.1897,-1.1923,-1.1932,-1.1952,-1.1962,-1.1991,-1.1984,-1.2025,-1.201,-1.2026,-1.2038,-1.2039,-1.2043,-1.2034,-1.2049,-1.2079,-1.2083,-1.2047,-1.2046,-1.2046,0,-1.1746,-1.1785,-1.1813,-1.1824,-1.1855,-1.1869,-1.1883,-1.1907,-1.1923,-1.1948,-1.1959,-1.1988,-1.2003,-1.2026,-1.2044,-1.2038,-1.2084,-1.2078,-1.2093,-1.2093,-1.2102,-1.2101,-1.2134,-1.2113,-1.2113,-1.2113,-1.2113,0,-1.1774,-1.1797,-1.1818,-1.1835,-1.1862,-1.1877,-1.1903,-1.1918,-1.194,-1.1961,-1.1972,-1.1992,-1.2015,-1.2039,-1.2054,-1.2085,-1.2093,-1.2102,-1.2106,-1.2101,-1.2099,-1.2111,-1.2109,-1.2114,-1.2114,-1.2114,-1.2113,0,-1.1791,-1.1806,-1.1837,-1.1863,-1.187,-1.1888,-1.1912,-1.193,-1.1945,-1.1972,-1.1979,-1.2003,-1.2032,-1.2052,-1.209,-1.21,-1.2134,-1.2138,-1.2124,-1.2126,-1.2139,-1.2137,-1.2181,-1.2187,-1.2162,-1.2162,-1.2162,0,-1.1807,-1.1825,-1.1852,-1.1866,-1.1879,-1.1902,-1.1917,-1.1934,-1.195,-1.198,-1.1995,-1.2024,-1.2047,-1.2094,-1.2116,-1.2145,-1.2149,-1.2163,-1.2154,-1.2148,-1.2149,-1.2147,-1.2149,-1.2164,-1.2164,-1.2164,-1.2164,0,-1.1834,-1.184,-1.1862,-1.1885,-1.1903,-1.1924,-1.1944,-1.1956,-1.1976,-1.1995,-1.2022,-1.2041,-1.2078,-1.2107,-1.2139,-1.2156,-1.2164,-1.2167,-1.2171,-1.2166,-1.2157,-1.2162,-1.2127,-1.2165,-1.2165,-1.2165,-1.2165,-1.2165,-1.1851,-1.1867,-1.1888,-1.1911,-1.1928,-1.1947,-1.1964,-1.198,-1.2003,-1.2033,-1.2042,-1.2071,-1.2097,-1.2139,-1.2157,-1.2182,-1.2181,-1.2188,-1.219,-1.2191,-1.2191,-1.2154,-1.2188,-1.2188,-1.2188,-1.2188,-1.2188,0,-1.1878,-1.1892,-1.1913,-1.194,-1.1959,-1.1962,-1.1985,-1.2001,-1.2026,-1.2048,-1.207,-1.2103,-1.2131,-1.2155,-1.2185,-1.22,-1.2205,-1.2208,-1.2206,-1.221,-1.219,-1.2182,-1.2203,-1.2203,-1.2203,-1.2203,-1.2203,-1.2203,-1.1894,-1.192,-1.1929,-1.1964,-1.1979,-1.2005,-1.2018,-1.2036,-1.2054,-1.2089,-1.2111,-1.2126,-1.2149,-1.218,-1.2207,-1.2214,-1.2224,-1.2226,-1.2233,-1.2214,-1.2212,-1.221,-1.2203,-1.2228,-1.2228,-1.2252,-1.2252,-1.2252]},{"header":{"parameterUnit":"m.s-1","parameterCategory":1,"la1":30.2991,"la2":30.254,"lo1":-89.0895,"lo2":-89.0444,"dy":0.0017,"dx":0.0017,"nx":28,"ny":28,"refTime":"2024-06-01T09:00:00:Z","depth":0,"parameterNumber":3,"parameterNumberName":"V-component_of_WINDS"},"data":[0,0,0,0,0,0,0,0,0,0,0,0,0,0,0,0,0,0,0,0,0,0,0,0,0,0,0,0,0,0,0,0,0,0,0,0,0,0,0,0,0,0,0,0,0,0,0,0,0,0,0,0,0,0,0,0,0,0,2.0811,2.0814,0,2.1042,2.1044,2.1047,2.1182,2.1183,2.1183,2.1184,2.1426,2.1432,2.1438,0,0,0,0,0,0,0,0,0,0,0,0,0,2.0493,2.0498,2.0811,2.0814,2.0817,2.1041,2.1045,2.1048,2.1182,2.1183,2.1183,2.1184,2.1424,2.1431,2.1439,0,0,0,0,0,0,0,0,0,0,0,0,0,2.0668,2.0499,2.081,2.0911,2.0922,2.1041,2.1045,2.1049,2.1182,2.1183,2.1183,2.1184,2.1422,2.1431,2.144,2.1479,0,0,2.1467,2.1471,0,0,0,0,0,0,0,0,2.0658,2.0679,2.0893,2.0904,2.0917,2.1084,2.1022,2.1193,2.1182,2.1083,2.1184,2.1185,2.1312,2.133,2.1372,2.149,2.1501,2.1468,2.1473,2.1477,2.148,0,0,0,0,0,0,0,2.0645,2.067,2.0903,2.0896,2.091,2.0946,2.0972,2.1055,2.1191,2.1092,2.1102,2.1127,2.1319,2.1363,2.1379,2.1504,2.1468,2.1475,2.1481,2.1484,2.1668,2.1667,0,0,0,0,0,0,2.0616,2.0659,2.0895,2.0909,2.0786,2.0951,2.098,2.1029,2.119,2.1215,2.1126,2.1133,2.1347,2.1368,2.1388,2.1445,2.1477,2.1485,2.1491,2.1668,2.1668,2.1667,0,0,0,0,0,0,2.0609,2.0636,2.0886,2.0787,2.0822,2.0956,2.101,2.1034,2.1078,2.1216,2.1242,2.1146,2.1349,2.1375,2.1455,2.1455,2.1489,2.1498,2.1669,2.1668,2.1668,2.1559,0,0,0,0,0,0,2.0599,2.0633,2.0647,2.0786,2.0826,2.0947,2.101,2.1038,2.1092,2.1103,2.1241,2.1265,2.1351,2.1441,2.1464,2.1468,2.1505,2.167,2.1669,2.1668,2.1563,2.1555,2.1547,0,0,0,0,0,2.0587,2.0609,2.0647,2.0675,2.0847,2.0947,2.097,2.1067,2.1091,2.1109,2.1198,2.1261,2.1451,2.1448,2.1475,2.1482,2.167,2.1669,2.1668,2.1567,2.1556,2.1548,0,0,0,0,0,0,2.0469,2.0629,2.0674,2.074,2.0828,2.0969,2.0994,2.1053,2.1137,2.1144,2.1263,2.1293,2.1362,2.143,2.1424,2.1529,2.1568,2.1572,2.1482,2.1473,2.1465,2.1448,2.1512,0,0,0,0,0,2.045,2.0515,2.0653,2.0698,2.074,2.0858,2.0906,2.0972,2.107,2.1108,2.1203,2.1297,2.1379,2.143,2.1512,2.1574,2.1607,2.1592,2.1584,2.1577,2.1579,2.1619,2.1614,2.1664,2.1664,2.1664,0,0,2.0413,2.0508,2.0543,2.0677,2.0753,2.082,2.0889,2.0957,2.1009,2.112,2.12,2.1273,2.1386,2.1457,2.1493,2.1516,2.1573,2.1575,2.1569,2.1576,2.1617,2.1612,2.1608,2.1663,2.1663,2.1663,0,0,2.0379,2.0457,2.0504,2.0578,2.0692,2.0771,2.0781,2.0913,2.0965,2.1048,2.1133,2.1197,2.1334,2.1411,2.1468,2.1462,2.1524,2.1486,2.1445,2.1482,2.1478,2.1475,2.1474,2.1472,2.1488,2.1488,2.1488,0,2.0319,2.042,2.0521,2.0583,2.0641,2.0742,2.0791,2.0859,2.0995,2.1033,2.1056,2.1231,2.1314,2.1405,2.1403,2.1446,2.1464,2.1471,2.147,2.1468,2.1467,2.1467,2.1467,2.1482,2.1483,2.1484,2.1484,0,2.0341,2.0411,2.0435,2.0561,2.0621,2.0677,2.0787,2.0836,2.0898,2.0974,2.1058,2.1161,2.1266,2.1293,2.1354,2.1393,2.1404,2.1446,2.1488,2.1455,2.1458,2.1459,2.1475,2.1477,2.1478,2.148,0,0,2.024,2.0419,2.0427,2.0485,2.0618,2.0675,2.0736,2.0836,2.0877,2.0967,2.1022,2.1136,2.1176,2.1241,2.1312,2.1344,2.1335,2.1384,2.1389,2.1372,2.1385,2.1352,2.135,2.1376,2.1376,2.1377,2.1376,0,2.0226,2.0338,2.043,2.0508,2.0574,2.0671,2.0725,2.0813,2.0886,2.0955,2.1038,2.1116,2.1163,2.1203,2.1238,2.1328,2.1339,2.1329,2.1431,2.1433,2.14,2.1352,2.1318,2.1311,2.1377,2.1377,2.1378,0,2.0225,2.0309,2.0393,2.0519,2.055,2.0596,2.0696,2.0759,2.0862,2.0914,2.0985,2.1059,2.113,2.1163,2.1264,2.1255,2.1303,2.1353,2.1355,2.1369,2.1404,2.1366,2.1312,2.1311,2.138,2.138,2.138,0,2.0144,2.0278,2.0346,2.0393,2.0541,2.0571,2.0635,2.0738,2.0793,2.0881,2.0918,2.1014,2.1067,2.114,2.1239,2.1254,2.133,2.1371,2.1377,2.1374,2.1389,2.1387,2.1343,2.1417,2.1417,2.1417,2.1417,0,2.012,2.0168,2.0311,2.0353,2.041,2.0516,2.057,2.0643,2.0734,2.0793,2.0883,2.0938,2.1064,2.1134,2.1212,2.1285,2.1308,2.1353,2.1373,2.1345,2.134,2.1379,2.1382,2.1417,2.1417,2.1417,2.1417,0,2.0039,2.0137,2.0217,2.035,2.0385,2.0421,2.0536,2.0582,2.0659,2.0733,2.0757,2.088,2.0967,2.1072,2.1195,2.1247,2.1313,2.1343,2.1277,2.1289,2.1289,2.1287,2.1269,2.1273,2.1342,2.1341,2.1341,0,2.0017,2.0056,2.0192,2.0237,2.0297,2.0369,2.0424,2.053,2.0585,2.0705,2.0736,2.0829,2.091,2.1045,2.1148,2.1242,2.1276,2.1262,2.1291,2.1261,2.1277,2.1274,2.1279,2.1255,2.1254,2.1253,2.1252,0,1.9969,2.0015,2.009,2.0182,2.0245,2.0324,2.0406,2.0438,2.0562,2.0619,2.0708,2.077,2.0894,2.0986,2.1093,2.1162,2.1228,2.1242,2.1249,2.1221,2.1182,2.1204,2.1258,2.1242,2.1243,2.1244,2.1245,2.1245,1.9919,1.9958,2.0059,2.014,2.0213,2.0287,2.0336,2.0419,2.0494,2.0601,2.066,2.0747,2.0851,2.1001,2.1067,2.1139,2.1163,2.1172,2.1174,2.1175,2.1167,2.1168,2.1159,2.1159,2.116,2.116,2.116,0,1.9876,1.9946,2.0019,2.013,2.0194,2.0247,2.0341,2.0392,2.0467,2.0556,2.0633,2.0736,2.0826,2.0934,2.1032,2.1069,2.1102,2.1091,2.109,2.1105,2.114,2.1125,2.1063,2.1063,2.1063,2.1063,2.1063,2.1063,1.9861,1.993,1.9988,2.0094,2.0165,2.0249,2.0298,2.0369,2.044,2.055,2.0624,2.0693,2.0791,2.0896,2.0982,2.1012,2.1045,2.1025,2.1064,2.1094,2.1103,2.1111,2.1098,2.1031,2.1031,2.1024,2.1024,2.1024]}]]